AirNav   Air Wisconsin pilot careers
 
 1526 users online  

7FL3 Adams Ranch Airport
Fort Pierce, Florida, USA

GOING TO FORT PIERCE?


FAA INFORMATION EFFECTIVE 04 JANUARY 2018

Location

FAA Identifier: 7FL3
Lat/Long: 27-26-31.1420N / 080-35-03.2010W
27-26.519033N / 080-35.053350W
27.4419839 / -80.5842225
(estimated)
Elevation: 25 ft. / 8 m (estimated)
Variation: 03W (1985)
From city: 14 miles W of FORT PIERCE, FL
Time zone: UTC -5 (UTC -4 during Daylight Saving Time)
Zip code: 34945

Airport Operations

Airport use: Private use. Permission required prior to landing
Activation date: 08/1991
Control tower: no
ARTCC: MIAMI CENTER
FSS: MIAMI FLIGHT SERVICE STATION
Attendance: UNATNDD
Wind indicator: yes
Segmented circle: no

Airport Communications

WX ASOS at FPR (12 nm E): PHONE 772-489-4281
WX ASOS at VRB (16 nm NE): PHONE 772-978-9535
WX AWOS-3 at OBE (18 nm SW): 118.675 (863-467-1148)

Nearby radio navigation aids

VOR radial/distance  VOR name  Freq  Var
TRVr207/15.1TREASURE VORTAC117.3007W
MLBr183/39.9MELBOURNE VOR/DME110.0007W
PHKr008/40.0PAHOKEE VOR/DME115.4000E

 
NDB name  Hdg/Dist  Freq  Var  ID
FORT PIERCE264/11.527507WFPR ..-. .--. .-.
UNITED342/34.640505WUTX ..- - -..-
SATELLITE177/39.925706WSQT ... --.- -

Airport Services

Runway Information

Runway 8/26

Dimensions: 2625 x 135 ft. / 800 x 41 m
Surface: turf, in good condition
Runway edge markings: 08/26 THRS ARE MKD WITH THR MARKERS; EDGES NOT MKD.
RUNWAY 8  RUNWAY 26
Traffic pattern: leftleft
Displaced threshold: 200 ft.150 ft.

Airport Ownership and Management from official FAA records

Ownership: Privately-owned
Owner: ADAMS RANCH INC.
PO BOX 12909
FT PIERCE, FL 34979-2909
Phone 407-461-6321
Manager: MICHAEL ADAMS
PO BOX 12909
FT PIERCE, FL 34979-2909
Phone 407-461-6321

Airport Operational Statistics

Aircraft based on the field: 4
Single engine airplanes: 3
Ultralights: 1
    

Additional Remarks

ULTRALIGHT ACTIVITY ON AND INVOF ARPT.

Instrument Procedures

There are no published instrument procedures at 7FL3.

Some nearby airports with instrument procedures:

KFPR - Treasure Coast International Airport (12 nm E)
KVRB - Vero Beach Regional Airport (16 nm NE)
KOBE - Okeechobee County Airport (18 nm SW)
X26 - Sebastian Municipal Airport (23 nm N)
KSUA - Witham Field Airport (25 nm SE)
 
Loc | Ops | Rwys | IFR | FBO | Links
Com | Nav | Svcs | Stats | Notes

Reliance Aviation
AirBoss

 
Area around 7FL3 (Adams Ranch Airport)
 
Road maps at: MapQuest Bing Google
 
Aerial photo
No photo
 
Sectional chart

 
Airport distance calculator
Flying to Adams Ranch Airport? Find the distance to fly.

From to 7FL3

Sunrise and sunset
Times for 22-Jan-2018
 Local
(UTC-5)
 Zulu
(UTC)
Morning civil twilight06:4911:49
Sunrise07:1412:14
Sunset17:5422:54
Evening civil twilight18:1923:19

Current date and time
Zulu (UTC)  22-Jan-2018 18:48:56
Local (UTC-5)  22-Jan-2018 13:48:56
 
METAR
KFPR 
11nm E 
221753Z 14012KT 10SM SCT020 25/19 A3010 RMK AO2 SLP193 T02500194 10256 20194 58020
KVRB 
15nm NE 
221753Z 14014G21KT 10SM SCT022 24/19 A3011 RMK AO2 SLP194 T02440189 10256 20183 58020
KOBE 
18nm SW 
221835Z AUTO 17009KT 10SM CLR 26/18 A3006 RMK AO2
TAF
KFPR 
11nm E 
221739Z 2218/2318 14015G22KT P6SM SCT025 FM230000 13008KT P6SM SCT030 OVC100 FM230900 16003KT P6SM SCT020 BKN040 OVC080 TEMPO 2310/2314 3SM SHRA BKN010 OVC020 FM231400 18010KT P6SM VCSH BKN020 OVC040 TEMPO 2314/2318 5SM -RA BR BKN012 OVC025
KVRB 
15nm NE 
221739Z 2218/2318 13014G21KT P6SM SCT035 FM230000 12008KT P6SM SCT030 OVC100 FM230900 16004KT P6SM SCT020 BKN040 OVC080 TEMPO 2310/2314 3SM SHRA BKN010 OVC020 FM231400 18007KT P6SM VCSH BKN020 OVC040 TEMPO 2314/2318 5SM -RA BR BKN012 OVC025
NOTAMs
Click for the latest NOTAMs
NOTAMs are issued by the DoD/FAA and will open in a separate window not controlled by AirNav.

 

 
 

Would you like to see your business listed on this page?

 If your business provides an interesting product or service to pilots, flight crews, aircraft, or users of the Adams Ranch Airport, you should consider listing it here.  To start the listing process, click on the button below
 
Add a business
 

Other Pages about Adams Ranch Airport

Update a link
 
Copyright © AirNav, LLC. All rights reserved. Privacy Policy  Contact